This is the latest recevied weather packets stored in our database for station/object KD2ZLA. If no packets are shown the sender has not sent any weather packets the latest 10 day(s).
| Time | Temp. | Humidity | Pressure | Rain* | Wind** | Luminosity | Snow |
|---|---|---|---|---|---|---|---|
| 1778032024 | 8.89° C | 93% | 1008.8 hPa | 2.29 mm | - | 0 W/m² | - |
| 1778031720 | 8.89° C | 93% | 1008.9 hPa | 3.05 mm | - | 0 W/m² | - |
| 1778031418 | 8.89° C | 93% | 1009.1 hPa | 2.29 mm | - | 0 W/m² | - |
| 1778031115 | 9.44° C | 93% | 1008.9 hPa | 2.29 mm | - | 0 W/m² | - |
| 1778030811 | 9.44° C | 93% | 1008.8 hPa | 2.29 mm | - | 0 W/m² | - |
| 1778030508 | 9.44° C | 92% | 1008.7 hPa | 1.78 mm | - | 0 W/m² | - |
| 1778030206 | 9.44° C | 92% | 1008.7 hPa | 1.78 mm | - | 0 W/m² | - |
| 1778029901 | 9.44° C | 92% | 1008.6 hPa | 2.29 mm | - | 0 W/m² | - |
| 1778029600 | 9.44° C | 92% | 1008.4 hPa | 2.29 mm | - | 0 W/m² | - |
| 1778029297 | 9.44° C | 91% | 1008.7 hPa | 1.78 mm | - | 0 W/m² | - |
| 1778028994 | 10° C | 91% | 1008.5 hPa | 1.27 mm | - | 0 W/m² | - |
| 1778028690 | 10° C | 90% | 1008.3 hPa | 1.27 mm | - | 0 W/m² | - |
| 1778028387 | 10° C | 89% | 1008.1 hPa | 1.78 mm | - | 0 W/m² | - |
| 1778028084 | 10° C | 89% | 1008.2 hPa | 2.29 mm | - | 0 W/m² | - |
| 1778027780 | 10° C | 88% | 1008.1 hPa | 2.29 mm | - | 0 W/m² | - |
| 1778027476 | 10° C | 88% | 1008 hPa | 2.29 mm | - | 0 W/m² | - |
| 1778027173 | 10° C | 87% | 1007.7 hPa | 1.78 mm | - | 0 W/m² | - |
| 1778026869 | 10.56° C | 86% | 1007.8 hPa | 1.78 mm | - | 0 W/m² | - |
| 1778026565 | 10.56° C | 84% | 1007.5 hPa | 2.29 mm | - | 0 W/m² | - |
| 1778026262 | 10.56° C | 82% | 1007.5 hPa | 3.05 mm | - | 0 W/m² | - |
| 1778025960 | 11.11° C | 80% | 1007.5 hPa | 3.56 mm | - | 1 W/m² | - |
| 1778025657 | 11.67° C | 77% | 1007.5 hPa | 3.05 mm | - | 1 W/m² | - |
| 1778025355 | 12.22° C | 72% | 1007.3 hPa | 1.78 mm | - | 1 W/m² | - |
| 1778025052 | 12.78° C | 69% | 1007.3 hPa | 1.27 mm | - | 1 W/m² | - |
| 1778024749 | 13.33° C | 66% | 1006.9 hPa | 1.27 mm | - | 2 W/m² | - |
* Rain latest hour (hover to see other rain measurements)
** Current wind speed in m/s (hover to see current wind gust speed)